New Paris, IN

8:36 AM EST on January 23, 2017 (GMT -0500)
Goshen Municipal

Weather History for KGSH - July, 2013

Change the Weather History Date:

Monday, July 1, 2013

  Actual Average Record
Temperature  
Mean Temperature 66 °F -  
Max Temperature 75 °F 82 °F 99 °F (1956)
Min Temperature 60 °F 60 °F 44 °F (1950)
Cooling Degree Days 2    
Growing Degree Days 16 (Base 50)    
Moisture  
Dew Point 53 °F    
Average Humidity 64    
Maximum Humidity 83    
Minimum Humidity 53    
Precipitation  
Precipitation 0.05 in - - ()
Sea Level Pressure  
Sea Level Pressure 29.99 in    
Wind  
Wind Speed 9 mph (NE)    
Max Wind Speed 16 mph    
Max Gust Speed 23 mph    
Visibility 9 miles    
Events Rain    
Averages and records for this station are not official NWS values.
T = Trace of Precipitation, MM = Missing Value Source: NWS Daily Summary

Daily Weather History Graph

Daily Weather History Graph

Search for Another Location

Airport or City:

Trip Planner

Search our weather history database for the weather conditions in past years. The results will help you decide how hot, cold, wet, or windy it might be!

Date:

Astronomy

Jul. 01, 2013 Rise Set
Actual Time 6:13 AM EDT 9:20 PM EDT
Civil Twilight 5:39 AM EDT 9:54 PM EDT
Nautical Twilight 4:55 AM EDT 10:38 PM EDT
Astronomical Twilight 4:04 AM EDT 11:29 PM EDT
Moon 1:45 AM EDT (7/1) 3:33 PM EDT (7/1)
Length of Visible Light 16h 15m
Length of Day
15h 07m
Waning Crescent, 35% of the Moon is Illuminated
Jul 1
Waning Crescent
Jul 8
New
Jul 15
First Quarter
Jul 22
Full
Jul 29
Last Quarter

Hourly Weather History & Observations

Time (EDT) Temp. Dew Point Humidity Pressure Visibility Wind Dir Wind Speed Gust Speed Precip Events Conditions
12:53 AM 64.9 °F 57.9 °F 78% 29.94 in 10.0 mi NNE 6.9 mph - N/A   Clear
1:53 AM 64.0 °F 55.0 °F 73% 29.94 in 10.0 mi NNE 5.8 mph - N/A   Clear
2:53 AM 62.1 °F 53.1 °F 72% 29.94 in 10.0 mi North 6.9 mph - N/A   Clear
3:53 AM 61.0 °F 52.0 °F 72% 29.94 in 10.0 mi North 6.9 mph - N/A   Clear
4:53 AM 61.0 °F 46.9 °F 60% 29.94 in 10.0 mi NNE 8.1 mph - N/A   Clear
5:53 AM 60.1 °F 45.0 °F 57% 29.96 in 10.0 mi NNE 6.9 mph - N/A   Clear
6:53 AM 60.1 °F 46.9 °F 62% 29.96 in 10.0 mi NNE 6.9 mph - N/A   Partly Cloudy
7:53 AM 61.0 °F 48.0 °F 62% 29.97 in 10.0 mi NNE 8.1 mph - N/A   Partly Cloudy
8:53 AM 62.1 °F 50.0 °F 65% 29.98 in 10.0 mi NNE 9.2 mph - N/A   Overcast
9:53 AM 64.0 °F 51.1 °F 63% 29.98 in 10.0 mi NNE 11.5 mph - N/A   Mostly Cloudy
10:53 AM 66.9 °F 55.0 °F 66% 29.98 in 10.0 mi NNE 6.9 mph - N/A   Partly Cloudy
11:53 AM 71.1 °F 57.0 °F 61% 29.99 in 10.0 mi NNE 12.7 mph - N/A   Scattered Clouds
12:53 PM 71.1 °F 55.0 °F 57% 29.99 in 8.0 mi NE 10.4 mph - N/A   Overcast
1:53 PM 73.9 °F 57.9 °F 57% 29.99 in 7.0 mi NE 11.5 mph - N/A   Scattered Clouds
2:53 PM 73.0 °F 57.9 °F 59% 29.99 in 10.0 mi ENE 11.5 mph 21.9 mph N/A   Overcast
3:53 PM 70.0 °F 57.0 °F 63% 30.01 in 10.0 mi NE 16.1 mph 23.0 mph N/A   Overcast
4:06 PM 66.2 °F 57.2 °F 73% 30.02 in 1.8 mi NE 15.0 mph 23.0 mph 0.03 in Rain Rain
4:17 PM 64.4 °F 59.0 °F 83% 30.02 in 3.0 mi ENE 10.4 mph - 0.05 in Rain Light Rain
4:53 PM 68.0 °F 59.0 °F 73% 30.01 in 10.0 mi NNE 8.1 mph - 0.05 in   Overcast
5:53 PM 69.1 °F 54.0 °F 58% 30.00 in 10.0 mi NE 11.5 mph - 0.00 in   Mostly Cloudy
6:53 PM 71.1 °F 53.1 °F 53% 30.01 in 10.0 mi NE 11.5 mph - N/A   Clear
7:53 PM 69.1 °F 53.1 °F 57% 30.02 in 10.0 mi NE 11.5 mph - N/A   Partly Cloudy
8:53 PM 68.0 °F 52.0 °F 56% 30.04 in 10.0 mi ENE 11.5 mph - N/A   Partly Cloudy
9:53 PM 66.0 °F 52.0 °F 60% 30.04 in 10.0 mi ENE 9.2 mph - N/A   Overcast
10:53 PM 64.9 °F 51.1 °F 61% 30.03 in 10.0 mi NE 8.1 mph - N/A   Partly Cloudy
11:53 PM 64.9 °F 50.0 °F 58% 30.04 in 10.0 mi NE 6.9 mph - N/A   Mostly Cloudy